Sy Clevelander — 2CWE8 — position and weather

sailwx.info

Track history (hours):
 
Tides and Currents Weather Stations Pressure Air Temp Water Temp Dewpoint Dewpoint Depression Visibility Wind Speed Wind Dir Waves Ship Positions

Sy Clevelander

Last reported at 2014-Oct-25 11:30 UTC. Time now 2014-Oct-25 19:52 UTC.
Position N 30°38' W 116°38'.

Length 25 m.

Type: Sailing vessel. MMSI: 235076308.

Date/timePositionNaut miles runAvg speedWind from/ knotsBaromVisibWave heightAir tempDewpointWater temp
2014-Oct-25 11:30N 30°38' W 116°38'47 9.3
2014-Oct-25 06:28N 31°24' W 116°51'18 9.5
2014-Oct-25 04:33N 31°41' W 116°56'9 9.4
2014-Oct-25 03:33N 31°50' W 116°58'10 9.6
2014-Oct-25 02:33N 31°60' W 117°01'10 9.5
2014-Oct-25 01:33N 32°09' W 117°04'9 9.1
2014-Oct-25 00:33N 32°18' W 117°06'9 9.0
2014-Oct-24 23:33N 32°27' W 117°09'9 9.0
2014-Oct-24 22:33N 32°35' W 117°11'8 6.6
2014-Oct-24 21:24N 32°43' W 117°14'0 0.0
2014-Oct-24 20:12N 32°43' W 117°14'0 0.0
2014-Oct-24 15:24N 32°43' W 117°14'0 0.0
2014-Oct-24 14:30N 32°43' W 117°14'0 0.0
2014-Oct-24 12:24N 32°43' W 117°14'0 0.0
2014-Oct-24 10:30N 32°43' W 117°14'0 0.0
2014-Oct-24 09:18N 32°43' W 117°14'0 0.0
2014-Oct-24 06:30N 32°43' W 117°14'0 0.0
2014-Oct-24 05:12N 32°43' W 117°14'0 0.0
2014-Oct-24 04:18N 32°43' W 117°14'0 0.0
2014-Oct-24 03:18N 32°43' W 117°14'0 0.0
2014-Oct-24 02:30N 32°43' W 117°14'0 0.0
2014-Oct-24 01:18N 32°43' W 117°14'0 0.0
2014-Oct-23 23:12N 32°43' W 117°14'0 0.0
2014-Oct-23 22:24N 32°43' W 117°14'0 0.0
2014-Oct-23 21:33N 32°43' W 117°14'0 0.0
2014-Oct-23 20:30N 32°43' W 117°14'0 0.0
2014-Oct-23 19:24N 32°43' W 117°14'0 0.0
2014-Oct-23 18:30N 32°43' W 117°14'0 0.0
2014-Oct-23 17:27N 32°43' W 117°14'0 0.0
2014-Oct-23 16:30N 32°43' W 117°14'0 0.0
2014-Oct-23 14:18N 32°43' W 117°14'0 0.0
2014-Oct-23 13:30N 32°43' W 117°14'0 0.0
2014-Oct-23 12:15N 32°43' W 117°14'0 0.0
2014-Oct-23 11:33N 32°43' W 117°14'0 0.0
2014-Oct-23 09:33N 32°43' W 117°14'0 0.0
2014-Oct-23 08:30N 32°43' W 117°14'0 0.0
2014-Oct-23 07:33N 32°43' W 117°14'0 0.0
2014-Oct-23 06:18N 32°43' W 117°14'0 0.0
2014-Oct-23 04:21N 32°43' W 117°14'0 0.0
2014-Oct-23 03:33N 32°43' W 117°14'0 0.0
2014-Oct-23 02:33N 32°43' W 117°14'0 0.0
2014-Oct-23 01:33N 32°43' W 117°14'0 0.0
2014-Oct-23 00:24N 32°43' W 117°14'0 0.0
2014-Oct-22 18:19N 32°43' W 117°14'0 0.0
2014-Oct-22 10:29N 32°43' W 117°14'0 0.0
2014-Oct-22 05:32N 32°43' W 117°14'0 0.0
2014-Oct-21 14:17N 32°43' W 117°14'0 0.0
2014-Oct-21 07:21N 32°43' W 117°14'0 0.0
2014-Oct-21 03:09N 32°43' W 117°14'0 0.0
2014-Oct-20 13:27N 32°43' W 117°14'0 0.0
2014-Oct-20 09:21N 32°43' W 117°14'0 0.0
2014-Oct-19 14:15N 32°43' W 117°14'0 0.0
2014-Oct-19 13:33N 32°43' W 117°14'0 0.0
2014-Oct-18 13:15N 32°43' W 117°14'0 0.0
2014-Oct-18 10:33N 32°43' W 117°14'0 0.0
2014-Oct-18 09:33N 32°43' W 117°14'0 0.0
2014-Oct-18 05:15N 32°43' W 117°14'1 0.0
2014-Oct-16 23:20N 32°41' W 117°14'3 3.6
2014-Oct-16 22:31N 32°39' W 117°13'2 1.6
2014-Oct-16 21:33N 32°37' W 117°13'5 0.2
2014-Oct-15 17:16N 32°43' W 117°14'0 0.0
2014-Oct-15 14:22N 32°43' W 117°14'0 0.0
2014-Oct-15 13:16N 32°43' W 117°14'0 0.0
2014-Oct-15 12:28N 32°43' W 117°14'  
Track history (hours):
 
Tides and Currents Weather Stations Pressure Air Temp Water Temp Dewpoint Dewpoint Depression Visibility Wind Speed Wind Dir Waves Ship Positions

Sy Clevelander

Last reported at 2014-Oct-25 11:30 UTC. Time now 2014-Oct-25 19:52 UTC.
Position N 30°38' W 116°38'.

Length 25 m.

Type: Sailing vessel. MMSI: 235076308.

Date/timePositionNaut miles runAvg speedWind from/ knotsBaromVisibWave heightAir tempDewpointWater temp
2014-Oct-25 11:30N 30°38' W 116°38'47 9.3
2014-Oct-25 06:28N 31°24' W 116°51'18 9.5
2014-Oct-25 04:33N 31°41' W 116°56'9 9.4
2014-Oct-25 03:33N 31°50' W 116°58'10 9.6
2014-Oct-25 02:33N 31°60' W 117°01'10 9.5
2014-Oct-25 01:33N 32°09' W 117°04'9 9.1
2014-Oct-25 00:33N 32°18' W 117°06'9 9.0
2014-Oct-24 23:33N 32°27' W 117°09'9 9.0
2014-Oct-24 22:33N 32°35' W 117°11'8 6.6
2014-Oct-24 21:24N 32°43' W 117°14'0 0.0
2014-Oct-24 20:12N 32°43' W 117°14'0 0.0
2014-Oct-24 15:24N 32°43' W 117°14'0 0.0
2014-Oct-24 14:30N 32°43' W 117°14'0 0.0
2014-Oct-24 12:24N 32°43' W 117°14'0 0.0
2014-Oct-24 10:30N 32°43' W 117°14'0 0.0
2014-Oct-24 09:18N 32°43' W 117°14'0 0.0
2014-Oct-24 06:30N 32°43' W 117°14'0 0.0
2014-Oct-24 05:12N 32°43' W 117°14'0 0.0
2014-Oct-24 04:18N 32°43' W 117°14'0 0.0
2014-Oct-24 03:18N 32°43' W 117°14'0 0.0
2014-Oct-24 02:30N 32°43' W 117°14'0 0.0
2014-Oct-24 01:18N 32°43' W 117°14'0 0.0
2014-Oct-23 23:12N 32°43' W 117°14'0 0.0
2014-Oct-23 22:24N 32°43' W 117°14'0 0.0
2014-Oct-23 21:33N 32°43' W 117°14'0 0.0
2014-Oct-23 20:30N 32°43' W 117°14'0 0.0
2014-Oct-23 19:24N 32°43' W 117°14'0 0.0
2014-Oct-23 18:30N 32°43' W 117°14'0 0.0
2014-Oct-23 17:27N 32°43' W 117°14'0 0.0
2014-Oct-23 16:30N 32°43' W 117°14'0 0.0
2014-Oct-23 14:18N 32°43' W 117°14'0 0.0
2014-Oct-23 13:30N 32°43' W 117°14'0 0.0
2014-Oct-23 12:15N 32°43' W 117°14'0 0.0
2014-Oct-23 11:33N 32°43' W 117°14'0 0.0
2014-Oct-23 09:33N 32°43' W 117°14'0 0.0
2014-Oct-23 08:30N 32°43' W 117°14'0 0.0
2014-Oct-23 07:33N 32°43' W 117°14'0 0.0
2014-Oct-23 06:18N 32°43' W 117°14'0 0.0
2014-Oct-23 04:21N 32°43' W 117°14'0 0.0
2014-Oct-23 03:33N 32°43' W 117°14'0 0.0
2014-Oct-23 02:33N 32°43' W 117°14'0 0.0
2014-Oct-23 01:33N 32°43' W 117°14'0 0.0
2014-Oct-23 00:24N 32°43' W 117°14'0 0.0
2014-Oct-22 18:19N 32°43' W 117°14'0 0.0
2014-Oct-22 10:29N 32°43' W 117°14'0 0.0
2014-Oct-22 05:32N 32°43' W 117°14'0 0.0
2014-Oct-21 14:17N 32°43' W 117°14'0 0.0
2014-Oct-21 07:21N 32°43' W 117°14'0 0.0
2014-Oct-21 03:09N 32°43' W 117°14'0 0.0
2014-Oct-20 13:27N 32°43' W 117°14'0 0.0
2014-Oct-20 09:21N 32°43' W 117°14'0 0.0
2014-Oct-19 14:15N 32°43' W 117°14'0 0.0
2014-Oct-19 13:33N 32°43' W 117°14'0 0.0
2014-Oct-18 13:15N 32°43' W 117°14'0 0.0
2014-Oct-18 10:33N 32°43' W 117°14'0 0.0
2014-Oct-18 09:33N 32°43' W 117°14'0 0.0
2014-Oct-18 05:15N 32°43' W 117°14'1 0.0
2014-Oct-16 23:20N 32°41' W 117°14'3 3.6
2014-Oct-16 22:31N 32°39' W 117°13'2 1.6
2014-Oct-16 21:33N 32°37' W 117°13'5 0.2
2014-Oct-15 17:16N 32°43' W 117°14'0 0.0
2014-Oct-15 14:22N 32°43' W 117°14'0 0.0
2014-Oct-15 13:16N 32°43' W 117°14'0 0.0
2014-Oct-15 12:28N 32°43' W 117°14'  

Dump ship's entire track history